Regional Weather Roundup
Issued by NWS

Home | Current Version | Previous Version | Text Only | Print | Product List | Glossary Off
Versions: 1 2 3 4 5 6 7 8 9 10 11 12 13 14 15 16 17 18 19 20 21 22 23 24 25 26 27

000
ASUS45 KTFX 191410
RWRMT
MONTANA REGIONAL WEATHER ROUNDUP
NATIONAL WEATHER SERVICE GREAT FALLS MT
700 AM MST SUN FEB 19 2017

NOTE: "FAIR" INDICATES FEW OR NO CLOUDS BELOW 12000 FEET WITH NO
SIGNIFICANT WEATHER AND/OR OBSTRUCTIONS TO VISIBILITY.

MTZ001>007-043-191500-
WEST OF THE DIVIDE

CITY           SKY/WX    TMP DP  RH WIND       PRES   REMARKS
KALISPELL      CLOUDY    33  32  96 CALM      29.46R
MISSOULA       MOCLDY    33  32  96 NW3       29.49R
BUTTE          LGT RAIN  36  31  82 NE5       29.46R
MULLAN PASS    FOG       25  25 100 S6        29.41R VSB 1/2 WCI  18
DEER LODGE       N/A     36  32  87 NW7       29.47S WCI  30
EUREKA           N/A     32  30  93 CALM      29.45S
HAMILTON         N/A     34  30  86 CALM        N/A
LIBBY            N/A     32  32 100 CALM      29.47R VSB 3/4
PLAINS           N/A     32  28  85 CALM      29.54  VSB 0
RONAN            N/A     32  30  92 CALM      29.56R
$$

MTZ008-052>055-191500-
SOUTHWEST MONTANA

CITY           SKY/WX    TMP DP  RH WIND       PRES   REMARKS
BOZEMAN        CLOUDY    38  33  82 NW7       29.45R
DILLON         CLOUDY    35  30  82 S5        29.45R
W YELLOWSTONE  MIX PCPN  32  32 100 SW13G18   29.55S WCI  22
ENNIS          CLOUDY    39  30  70 S12G18    29.52R WCI  32
$$

MTZ009-010-012-014-046-048-049-054-191500-
EAST SLOPES AND CENTRAL MONTANA

CITY           SKY/WX    TMP DP  RH WIND       PRES   REMARKS
CUT BANK       MOCLDY    35  30  82 W9        29.35R WCI  28
GREAT FALLS    CLOUDY    45  33  63 SW16      29.36R
MALMSTROM AFB  CLOUDY    45  35  67 SW17      29.36S
HELENA         CLOUDY    39  35  86 SE5       29.44R
AUGUSTA        MOCLDY    39  31  75 S3        29.37R
BOWMANS CRNR   MOCLDY    39  32  77 SW17      29.37R WCI  29
CHOTEAU          N/A     41  32  70 SW7       29.38R
CONRAD           N/A     32  32 100 CALM      29.44R
POWER          CLOUDY    40  32  73 SW10      29.35R
RAYNESFORD     MOCLDY    44  32  60 S6        29.38S
ULM            CLOUDY    44  34  69 MISG      29.38R
$$

MTZ011-013-016-021-045-047-050-051-191500-
NORTH CENTRAL MONTANA

CITY           SKY/WX    TMP DP  RH WIND       PRES   REMARKS
HAVRE          CLOUDY    30  29  96 E8        29.36S WCI  22
LEWISTOWN      CLOUDY    37  29  72 CALM      29.39S
N BAR RANCH    CLOUDY    39  28  65 W6        29.43S
CHINOOK          N/A     30  30 100 E12G18    29.38R WCI  21
DENTON         CLOUDY    40  31  68 W9        29.34S
FORT BENTON      N/A    N/A N/A N/A MISG      29.38R
GEYSER         MOCLDY    44  29  56 W7        29.37S
GRASS RANGE    MOCLDY    38  30  71 W5        29.35F
JUDITH GAP       N/A     33  28  83 S10       29.42R WCI  25
ROY            CLOUDY    38  31  77 MISG      29.36S
STANFORD       MOCLDY    40  31  71 SW10      29.39S
WINIFRED       CLOUDY    34  31  88 E3        29.37S
$$

MTZ017>020-022>027-061-062-191500-
NORTHEAST MONTANA

CITY           SKY/WX    TMP DP  RH WIND       PRES   REMARKS
GLASGOW        CLOUDY    31  29  92 E21G26    29.45F FOG     WCI  18
JORDAN           N/A     32  29  88 E8        29.43R WCI  25
SIDNEY         FOG       32  31  96 NE5       29.54F VSB 1/2
WOLF POINT     CLOUDY    32  30  92 E16       29.51F FOG     WCI  21
PLENTYWOOD       N/A     30  28  93 E8        29.55F WCI  23
POPLAR           N/A     30  28  93 E13       29.53S VSB 3/4 WCI  20
SCOBEY           N/A     31  25  78 E6        29.52  WCI  25
$$

MTZ028>42-056>058-191500-
SOUTHCENTRAL AND SOUTHEAST MONTANA

CITY           SKY/WX    TMP DP  RH WIND       PRES   REMARKS
BAKER          CLOUDY    31  28  89 SE7       29.48F WCI  24
BILLINGS       CLOUDY    37  32  82 SW8       29.43R WCI  31
LIVINGSTON     CLOUDY    46  33  60 SW22G37   29.43R
MILES CITY     CLOUDY    32  28  85 NE7       29.46S WCI  26
BIG TIMBER     PTCLDY    34  28  80 SE3       29.46R
EKALAKA          N/A     43  31  63 SE3       29.51
FORSYTH          N/A     32  32 100 CALM      29.43F
HARLOWTON        N/A     31  28  88 W7        29.43R WCI  25
LAUREL           N/A     36  21  54 MISG      29.46S
$$

REGIONAL REPORTS...DAKOTAS

CITY           SKY/WX    TMP DP  RH WIND       PRES   REMARKS
WILLISTON      CLOUDY    33  31  92 E8        29.57S WCI  26
MINOT          CLOUDY    34  32  92 NE9       29.62F WCI  27
DICKINSON      FOG       27  26  96 E7        29.51S VSB 1/4 WCI  19
BEACH            N/A    N/A N/A N/A MISG        N/A
CROSBY         CLOUDY    30  30 100 E17       29.62F WCI  18
TIOGA          CLOUDY    30  30 100 E16       29.59F FOG     WCI  19
WATFORD CITY   FOG       32  32 100 E12       29.56F VSB 1   WCI  23
BISMARCK       CLOUDY    36  33  89 E9        29.60F WCI  29
GRAND FORKS    CLOUDY    36  30  79 E9        29.79S WCI  29
FARGO          CLOUDY    42  37  82 SE14      29.78R
BUFFALO SD       N/A     39  32  76 S10       29.45S
RAPID CITY     PTCLDY    35  28  75 CALM      29.56S
$$

REGIONAL REPORTS...WYOMING/IDAHO/WASHINGTON

CITY           SKY/WX    TMP DP  RH WIND       PRES   REMARKS
GILLETTE       CLOUDY    44  32  62 S23G30    29.50S
SHERIDAN       CLOUDY    30  26  85 VRB5      29.46F
BUFFALO WY     CLOUDY    44  24  45 SW10      29.49S
CODY           CLOUDY    30  26  85 CALM      29.49S
YELLOWSTONE LA   N/A     30  28  92 MISG      29.58R
IDAHO FALLS    CLOUDY    35  34  96 S10       29.59S WCI  27
SALMON         CLOUDY    34  34 100 CALM      29.48S
BOISE          PTCLDY    39  37  92 S3        29.57R
SPOKANE        LGT RAIN  33  32  96 CALM      29.46R VSB 1/2
$$

REGIONAL REPORTS...ALBERTA

CITY           SKY/WX    TMP DP  RH WIND       PRES   REMARKS
EDMONTON       MIX PCPN  32  32 100 SE3       29.37S
CALGARY        MOCLDY    25  23  93 NW5       29.31S
LETHBRIDGE     PTCLDY    30  28  93 SW10      29.33R WCI  21
MEDICINE HAT   MOCLDY    28  27  93 W3        29.35R
WATERTON GATE    N/A     36  30  80 SW12G17     N/A  WCI  27
CARDSTON         N/A     32  28  86 SW3         N/A
MILK RIVER       N/A     34  32  93 S6          N/A  WCI  29
$$

REGIONAL REPORTS...SASKATCHEWAN

CITY           SKY/WX    TMP DP  RH WIND       PRES   REMARKS
SWIFT CURRENT  PTCLDY    30  30 100 E14G21    29.42S WCI  20
REGINA         CLOUDY    32  27  80 E18G28    29.59F WCI  20
SASKATOON      CLOUDY    34  28  80 SE20G26   29.59F WCI  22
CYPRESS HILLS    N/A     28  27  93 SE9         N/A  WCI  20
VAL MARIE        N/A     32  28  86 NE3         N/A
ROCKGLEN         N/A     30  28  93 E13         N/A  WCI  20
ASSINIBOIA       N/A     34  32  93 SE12        N/A  WCI  25
$$




USA.gov is the U.S. government's official web portal to all federal, state and local government web resources and services.